User: anonymous   Login
Location: Franzen
(48.6167°N, 15.3833°E)
Time: 06:38:40
(UTC+00:00)
Language:

Cosmos 1437 Rocket - Orbit

View from above orbital plane
View from above orbital plane
View from above satellite
View from above satellite

Ground track
Ground track

The orbit data is extracted from the following two-line orbital elements,

1 13771U 83003B   21166.32992312  .00000155  00000-0  75937-5 0  9997
2 13771  81.1700 120.9298 0045890 205.1632 154.7359 15.10941458 94032
Epoch (UTC): 15 June 2021 07:55:05
Eccentricity: 0.0045890
inclination: 81.1700°
perigee height: 501 km
apogee height: 565 km
right ascension of ascending node: 120.9298°
argument of perigee: 205.1632°
revolutions per day: 15.10941458
mean anomaly at epoch: 154.7359°
orbit number at epoch: 9403

The dashed part of the orbit path shows where the satellite is in the earth's shadow,  

DLR